ARG1695 SAWC-SAZS

Flight info

Callsign ARG1695
Flight time 1h 29m
Altitude 34000
Route OGTUR1C OGTUR UT659 ASADO/N0454F360 UT659 DAKAX UT658 ESQ UW44 TORES TORES1Q
Aircraft B738/M-SDE2E3FGHIRWXY/LB1

Departure

Time 2026-05-04 21:20
Airport El Calafate - Commander Armando Tola International Airport (SAWC)

Arrival

Time 2026-05-04 22:49
Airport Teniente Luis Candelaria International Airport (SAZS)
Time Latitude Longitude Altitude Speed Heading
2026-05-04 21:03 -50.28343 -72.05459 677 ft 0 kts 176°
2026-05-04 21:10 -50.28331 -72.05461 677 ft 3 kts 176°
2026-05-04 21:11 -50.28311 -72.05463 677 ft 3 kts 175°
2026-05-04 21:11 -50.28295 -72.05465 677 ft 3 kts 168°
2026-05-04 21:11 -50.28278 -72.05476 677 ft 3 kts 129°
2026-05-04 21:11 -50.28270 -72.05502 677 ft 3 kts 98°
2026-05-04 21:12 -50.28269 -72.05529 677 ft 1 kts 84°
2026-05-04 21:12 -50.28270 -72.05538 677 ft 0 kts 84°
2026-05-04 21:15 -50.28270 -72.05541 677 ft 0 kts 84°
2026-05-04 21:15 -50.28270 -72.05540 677 ft 1 kts 84°
2026-05-04 21:15 -50.28269 -72.05528 677 ft 1 kts 85°
2026-05-04 21:15 -50.28269 -72.05526 677 ft 0 kts 84°
2026-05-04 21:16 -50.28268 -72.05521 677 ft 1 kts 85°
2026-05-04 21:16 -50.28268 -72.05505 677 ft 2 kts 86°
2026-05-04 21:16 -50.28263 -72.05446 677 ft 12 kts 80°
2026-05-04 21:16 -50.28197 -72.05404 677 ft 11 kts 355°
2026-05-04 21:17 -50.28117 -72.05415 677 ft 14 kts 355°
2026-05-04 21:17 -50.28027 -72.05360 677 ft 16 kts 81°
2026-05-04 21:17 -50.28016 -72.05190 677 ft 15 kts 84°
2026-05-04 21:17 -50.28006 -72.05029 677 ft 14 kts 84°
2026-05-04 21:18 -50.27995 -72.04879 677 ft 13 kts 83°
2026-05-04 21:18 -50.27984 -72.04716 677 ft 22 kts 83°
2026-05-04 21:18 -50.27962 -72.04403 677 ft 31 kts 84°
2026-05-04 21:18 -50.27939 -72.04084 677 ft 28 kts 84°
2026-05-04 21:19 -50.27921 -72.03790 677 ft 26 kts 92°
2026-05-04 21:19 -50.27958 -72.03599 677 ft 11 kts 82°
2026-05-04 21:19 -50.27923 -72.03611 677 ft 9 kts 261°
2026-05-04 21:19 -50.27943 -72.03926 677 ft 66 kts 264°
2026-05-04 21:20 -50.28018 -72.05042 678 ft 140 kts 264°
2026-05-04 21:20 -50.28124 -72.06759 1083 ft 168 kts 265°
2026-05-04 21:20 -50.28214 -72.08617 1917 ft 177 kts 263°
2026-05-04 21:20 -50.28298 -72.10486 2948 ft 166 kts 260°
2026-05-04 21:21 -50.28431 -72.12329 3527 ft 179 kts 258°
2026-05-04 21:21 -50.28570 -72.14375 3914 ft 199 kts 259°
2026-05-04 21:21 -50.28707 -72.16617 4364 ft 218 kts 260°
2026-05-04 21:21 -50.28853 -72.19112 4909 ft 237 kts 261°
2026-05-04 21:22 -50.29001 -72.21729 5626 ft 247 kts 262°
2026-05-04 21:22 -50.29011 -72.24455 6425 ft 257 kts 276°
2026-05-04 21:22 -50.28333 -72.27081 7250 ft 266 kts 302°
2026-05-04 21:22 -50.26970 -72.29064 8081 ft 275 kts 327°
2026-05-04 21:23 -50.25154 -72.30107 8933 ft 281 kts 346°
2026-05-04 21:23 -50.23193 -72.30355 9751 ft 286 kts
2026-05-04 21:23 -50.21197 -72.30125 10545 ft 290 kts
2026-05-04 21:23 -50.19166 -72.30113 11323 ft 294 kts
2026-05-04 21:24 -50.17105 -72.29770 12086 ft 300 kts
2026-05-04 21:24 -50.15043 -72.28980 12677 ft 312 kts 15°
2026-05-04 21:24 -50.12919 -72.27909 12980 ft 333 kts 17°
2026-05-04 21:24 -50.11435 -72.27115 13163 ft 346 kts 17°
2026-05-04 21:25 -50.09106 -72.25892 13552 ft 360 kts 17°
2026-05-04 21:25 -50.05917 -72.24220 14422 ft 367 kts 17°
2026-05-04 21:25 -50.03475 -72.22966 15121 ft 371 kts 17°
2026-05-04 21:25 -50.01008 -72.21714 15805 ft 375 kts 16°
2026-05-04 21:26 -49.99328 -72.20865 16256 ft 377 kts 16°
2026-05-04 21:26 -49.96000 -72.19190 17118 ft 382 kts 16°
2026-05-04 21:26 -49.94279 -72.18326 17549 ft 385 kts 16°
2026-05-04 21:26 -49.91705 -72.17036 18127 ft 390 kts 17°
2026-05-04 21:27 -49.89147 -72.15754 18709 ft 394 kts 17°
2026-05-04 21:27 -49.86526 -72.14443 19308 ft 398 kts 17°
2026-05-04 21:27 -49.83881 -72.13121 19914 ft 400 kts 18°
2026-05-04 21:27 -49.81221 -72.11792 20521 ft 403 kts 18°
2026-05-04 21:28 -49.78547 -72.10456 21121 ft 405 kts 18°
2026-05-04 21:28 -49.75860 -72.09104 21713 ft 406 kts 19°
2026-05-04 21:28 -49.73172 -72.07745 22288 ft 408 kts 19°
2026-05-04 21:28 -49.70463 -72.06385 22821 ft 411 kts 19°
2026-05-04 21:29 -49.67725 -72.05018 23232 ft 416 kts 19°
2026-05-04 21:29 -49.64960 -72.03642 23648 ft 421 kts 19°
2026-05-04 21:29 -49.62151 -72.02247 24057 ft 425 kts 19°
2026-05-04 21:29 -49.59318 -72.00842 24459 ft 430 kts 18°
2026-05-04 21:30 -49.56463 -71.99427 24849 ft 434 kts 18°
2026-05-04 21:30 -49.53576 -71.97997 25234 ft 438 kts 18°
2026-05-04 21:30 -49.50656 -71.96553 25618 ft 442 kts 18°
2026-05-04 21:30 -49.47716 -71.95099 25995 ft 445 kts 17°
2026-05-04 21:31 -49.41698 -71.92581 26760 ft 450 kts 11°
2026-05-04 21:31 -49.38630 -71.91609 27149 ft 452 kts
2026-05-04 21:31 -49.35531 -71.90652 27547 ft 454 kts
2026-05-04 21:32 -49.32440 -71.89663 27947 ft 455 kts
2026-05-04 21:32 -49.29332 -71.88651 28354 ft 456 kts
2026-05-04 21:32 -49.26232 -71.87632 28782 ft 456 kts
2026-05-04 21:32 -49.23144 -71.86613 29271 ft 454 kts
2026-05-04 21:33 -49.20047 -71.85589 29641 ft 455 kts
2026-05-04 21:33 -49.16962 -71.84549 30020 ft 455 kts
2026-05-04 21:33 -49.13869 -71.83511 30415 ft 455 kts
2026-05-04 21:33 -49.10776 -71.82483 30790 ft 455 kts
2026-05-04 21:34 -49.07695 -71.81465 31162 ft 455 kts
2026-05-04 21:34 -49.04607 -71.80447 31527 ft 454 kts
2026-05-04 21:34 -49.01519 -71.79431 31886 ft 454 kts
2026-05-04 21:34 -48.98426 -71.78416 32239 ft 454 kts
2026-05-04 21:35 -48.95323 -71.77397 32587 ft 454 kts
2026-05-04 21:35 -48.92235 -71.76385 32928 ft 454 kts
2026-05-04 21:35 -48.89143 -71.75372 33263 ft 454 kts
2026-05-04 21:35 -48.86086 -71.74359 33411 ft 458 kts
2026-05-04 21:36 -48.82962 -71.73349 33427 ft 459 kts
2026-05-04 21:36 -48.76683 -71.71381 33432 ft 455 kts
2026-05-04 21:37 -48.70541 -71.69445 33433 ft 454 kts
2026-05-04 21:37 -48.64351 -71.67493 33433 ft 454 kts
2026-05-04 21:38 -48.58149 -71.65540 33433 ft 454 kts
2026-05-04 21:38 -48.51961 -71.63583 33433 ft 454 kts
2026-05-04 21:39 -48.45777 -71.61624 33433 ft 454 kts
2026-05-04 21:39 -48.39596 -71.59681 33433 ft 454 kts
2026-05-04 21:40 -48.33412 -71.57739 33433 ft 454 kts
2026-05-04 21:40 -48.27258 -71.55806 33433 ft 454 kts
2026-05-04 21:41 -48.21075 -71.53883 33433 ft 454 kts
2026-05-04 21:41 -48.14886 -71.51966 33433 ft 454 kts
2026-05-04 21:42 -48.08708 -71.50056 33433 ft 454 kts
2026-05-04 21:42 -48.02512 -71.48142 33433 ft 454 kts
2026-05-04 21:43 -47.96310 -71.46550 33433 ft 452 kts
2026-05-04 21:43 -47.90091 -71.45153 33433 ft 452 kts
2026-05-04 21:44 -47.83867 -71.43718 33433 ft 452 kts
2026-05-04 21:44 -47.77651 -71.42269 33433 ft 452 kts
2026-05-04 21:45 -47.71431 -71.40814 33433 ft 452 kts
2026-05-04 21:45 -47.65258 -71.39356 33433 ft 452 kts
2026-05-04 21:46 -47.59047 -71.37890 33433 ft 452 kts
2026-05-04 21:46 -47.52822 -71.36428 33433 ft 452 kts
2026-05-04 21:47 -47.46610 -71.34976 33433 ft 452 kts
2026-05-04 21:47 -47.40393 -71.33526 33433 ft 452 kts
2026-05-04 21:48 -47.34179 -71.32081 33433 ft 452 kts
2026-05-04 21:48 -47.27963 -71.30639 33433 ft 452 kts
2026-05-04 21:49 -47.21758 -71.29204 33433 ft 452 kts
2026-05-04 21:49 -47.15542 -71.27769 33433 ft 452 kts
2026-05-04 21:50 -47.09372 -71.26348 33433 ft 452 kts
2026-05-04 21:50 -47.03157 -71.24920 33433 ft 452 kts
2026-05-04 21:51 -46.96960 -71.23499 33509 ft 449 kts
2026-05-04 21:51 -46.90786 -71.22088 33570 ft 449 kts
2026-05-04 21:52 -46.84615 -71.20680 33596 ft 449 kts
2026-05-04 21:52 -46.79754 -71.19573 33606 ft 449 kts
2026-05-04 21:53 -46.74388 -71.18354 33610 ft 449 kts
2026-05-04 21:53 -46.68221 -71.16956 33610 ft 448 kts
2026-05-04 21:54 -46.62064 -71.15563 33610 ft 449 kts
2026-05-04 21:54 -46.55930 -71.14179 33610 ft 448 kts
2026-05-04 21:55 -46.49769 -71.12791 33610 ft 449 kts
2026-05-04 21:55 -46.43586 -71.11402 33610 ft 449 kts
2026-05-04 21:56 -46.37409 -71.10018 33610 ft 449 kts
2026-05-04 21:56 -46.31226 -71.08635 33610 ft 450 kts
2026-05-04 21:57 -46.25039 -71.07255 33610 ft 451 kts
2026-05-04 21:57 -46.18842 -71.05875 33610 ft 450 kts
2026-05-04 21:58 -46.12635 -71.04497 33610 ft 450 kts
2026-05-04 21:58 -46.06440 -71.03124 33610 ft 450 kts
2026-05-04 21:59 -46.00305 -71.01767 33610 ft 448 kts
2026-05-04 21:59 -45.94123 -71.00404 33610 ft 451 kts
2026-05-04 22:00 -45.87890 -70.99032 33610 ft 450 kts
2026-05-04 22:00 -45.81738 -70.97681 33610 ft 450 kts
2026-05-04 22:01 -45.75557 -70.96326 33610 ft 450 kts
2026-05-04 22:01 -45.69351 -70.94969 33610 ft 450 kts
2026-05-04 22:02 -45.63147 -70.93616 33610 ft 451 kts
2026-05-04 22:02 -45.56940 -70.92265 33610 ft 451 kts
2026-05-04 22:03 -45.50743 -70.90919 33610 ft 451 kts
2026-05-04 22:03 -45.44543 -70.89576 33610 ft 450 kts
2026-05-04 22:04 -45.38379 -70.88243 33610 ft 450 kts
2026-05-04 22:04 -45.32185 -70.86907 33610 ft 450 kts
2026-05-04 22:05 -45.25982 -70.85572 33610 ft 450 kts
2026-05-04 22:05 -45.19786 -70.84241 33610 ft 450 kts
2026-05-04 22:06 -45.13595 -70.82914 33610 ft 450 kts
2026-05-04 22:06 -45.07400 -70.81580 33610 ft 450 kts
2026-05-04 22:07 -45.01211 -70.80259 33610 ft 450 kts
2026-05-04 22:07 -44.95019 -70.78944 33610 ft 449 kts
2026-05-04 22:08 -44.88829 -70.77632 33610 ft 450 kts
2026-05-04 22:08 -44.85736 -70.76977 33610 ft 450 kts
2026-05-04 22:09 -44.68332 -70.77758 33610 ft 433 kts 345°
2026-05-04 22:10 -44.65348 -70.78321 33610 ft 433 kts 345°
2026-05-04 22:10 -44.59369 -70.79434 33610 ft 433 kts 345°
2026-05-04 22:11 -44.53399 -70.80535 33610 ft 433 kts 345°
2026-05-04 22:11 -44.47415 -70.81633 33610 ft 433 kts 345°
2026-05-04 22:12 -44.41442 -70.82736 33610 ft 433 kts 345°
2026-05-04 22:12 -44.35468 -70.83834 33610 ft 433 kts 345°
2026-05-04 22:13 -44.29487 -70.84928 33610 ft 433 kts 345°
2026-05-04 22:13 -44.23511 -70.86017 33610 ft 433 kts 345°
2026-05-04 22:14 -44.17538 -70.87103 33610 ft 433 kts 345°
2026-05-04 22:14 -44.11560 -70.88187 33610 ft 433 kts 345°
2026-05-04 22:15 -44.05621 -70.89263 33610 ft 433 kts 345°
2026-05-04 22:15 -43.99644 -70.90342 33610 ft 433 kts 345°
2026-05-04 22:16 -43.93664 -70.91420 33610 ft 433 kts 345°
2026-05-04 22:16 -43.87683 -70.92496 33610 ft 433 kts 345°
2026-05-04 22:17 -43.81712 -70.93569 33610 ft 433 kts 345°
2026-05-04 22:17 -43.75737 -70.94639 33610 ft 433 kts 345°
2026-05-04 22:18 -43.69795 -70.95702 33610 ft 433 kts 345°
2026-05-04 22:18 -43.63862 -70.96761 33610 ft 433 kts 345°
2026-05-04 22:19 -43.57876 -70.97827 33610 ft 433 kts 345°
2026-05-04 22:19 -43.51899 -70.98890 33610 ft 433 kts 345°
2026-05-04 22:20 -43.45924 -70.99950 33610 ft 433 kts 345°
2026-05-04 22:20 -43.39967 -71.01005 33610 ft 433 kts 345°
2026-05-04 22:21 -43.33984 -71.02063 33610 ft 433 kts 345°
2026-05-04 22:21 -43.28049 -71.03109 33610 ft 426 kts 342°
2026-05-04 22:22 -43.22173 -71.04144 33610 ft 425 kts 342°
2026-05-04 22:22 -43.16310 -71.05182 33610 ft 425 kts 342°
2026-05-04 22:23 -43.10442 -71.06211 33610 ft 422 kts 342°
2026-05-04 22:23 -43.04640 -71.07224 33610 ft 420 kts 342°
2026-05-04 22:24 -42.98872 -71.08229 33342 ft 419 kts 342°
2026-05-04 22:24 -42.95969 -71.08735 32969 ft 413 kts 341°
2026-05-04 22:24 -42.93166 -71.09223 32511 ft 409 kts 341°
2026-05-04 22:24 -42.90366 -71.09710 32058 ft 406 kts 341°
2026-05-04 22:25 -42.87543 -71.10141 31610 ft 407 kts 343°
2026-05-04 22:25 -42.84715 -71.10330 31172 ft 408 kts 346°
2026-05-04 22:25 -42.81894 -71.10440 30736 ft 405 kts 346°
2026-05-04 22:25 -42.79077 -71.10562 30304 ft 402 kts 345°
2026-05-04 22:26 -42.76290 -71.10692 29878 ft 399 kts 345°
2026-05-04 22:26 -42.73531 -71.10826 29461 ft 396 kts 344°
2026-05-04 22:26 -42.70787 -71.10964 29047 ft 393 kts 343°
2026-05-04 22:26 -42.68061 -71.11103 28632 ft 390 kts 343°
2026-05-04 22:27 -42.65346 -71.11244 28214 ft 387 kts 342°
2026-05-04 22:27 -42.62667 -71.11383 27801 ft 384 kts 342°
2026-05-04 22:27 -42.60008 -71.11522 27391 ft 381 kts 341°
2026-05-04 22:27 -42.57366 -71.11661 26983 ft 379 kts 341°
2026-05-04 22:28 -42.54737 -71.11799 26576 ft 376 kts 340°
2026-05-04 22:28 -42.52137 -71.11937 26171 ft 373 kts 340°
2026-05-04 22:28 -42.49592 -71.12072 25774 ft 370 kts 339°
2026-05-04 22:28 -42.47031 -71.12207 25374 ft 367 kts 339°
2026-05-04 22:29 -42.44490 -71.12341 24978 ft 364 kts 338°
2026-05-04 22:29 -42.41979 -71.12474 24585 ft 361 kts 338°
2026-05-04 22:29 -42.39481 -71.12605 24193 ft 358 kts 337°
2026-05-04 22:29 -42.37004 -71.12735 23803 ft 355 kts 336°
2026-05-04 22:30 -42.34536 -71.12865 23413 ft 352 kts 336°
2026-05-04 22:30 -42.32123 -71.12992 23121 ft 346 kts 338°
2026-05-04 22:30 -42.29720 -71.13118 22756 ft 343 kts 338°
2026-05-04 22:30 -42.27344 -71.13243 22389 ft 339 kts 338°
2026-05-04 22:31 -42.24989 -71.13366 22024 ft 336 kts 338°
2026-05-04 22:31 -42.22660 -71.13488 21660 ft 334 kts 339°
2026-05-04 22:31 -42.20349 -71.13608 21298 ft 331 kts 339°
2026-05-04 22:31 -42.18063 -71.13728 20939 ft 329 kts 339°
2026-05-04 22:32 -42.15783 -71.13847 20582 ft 326 kts 339°
2026-05-04 22:32 -42.13523 -71.13965 20228 ft 324 kts 339°
2026-05-04 22:32 -42.11275 -71.14082 19876 ft 322 kts 340°
2026-05-04 22:32 -42.09043 -71.14198 19526 ft 320 kts 340°
2026-05-04 22:33 -42.06859 -71.14312 19185 ft 317 kts 340°
2026-05-04 22:33 -42.04631 -71.14428 18837 ft 315 kts 340°
2026-05-04 22:33 -42.02482 -71.14541 18502 ft 313 kts 340°
2026-05-04 22:33 -42.00315 -71.14654 18165 ft 311 kts 340°
2026-05-04 22:34 -41.98155 -71.14766 17834 ft 309 kts 341°
2026-05-04 22:34 -41.96013 -71.14877 17503 ft 306 kts 341°
2026-05-04 22:34 -41.93882 -71.14987 17171 ft 304 kts 341°
2026-05-04 22:34 -41.91788 -71.15095 16848 ft 302 kts 341°
2026-05-04 22:35 -41.89679 -71.15204 16521 ft 300 kts 341°
2026-05-04 22:35 -41.87607 -71.15312 16199 ft 298 kts 341°
2026-05-04 22:35 -41.85530 -71.15419 15877 ft 296 kts 341°
2026-05-04 22:35 -41.83482 -71.15525 15558 ft 294 kts 341°
2026-05-04 22:36 -41.81444 -71.15630 15235 ft 292 kts 341°
2026-05-04 22:36 -41.79423 -71.15733 14909 ft 291 kts 341°
2026-05-04 22:36 -41.77393 -71.15838 14574 ft 290 kts 341°
2026-05-04 22:36 -41.75392 -71.15940 14240 ft 289 kts 341°
2026-05-04 22:37 -41.73368 -71.15938 13893 ft 300 kts 350°
2026-05-04 22:37 -41.71269 -71.15195 13560 ft 326 kts
2026-05-04 22:37 -41.69279 -71.13530 13223 ft 345 kts 25°
2026-05-04 22:37 -41.67403 -71.11538 12872 ft 343 kts 25°
2026-05-04 22:38 -41.65462 -71.09705 12566 ft 338 kts 23°
2026-05-04 22:38 -41.63535 -71.07937 12267 ft 335 kts 23°
2026-05-04 22:38 -41.61629 -71.06166 11932 ft 334 kts 23°
2026-05-04 22:38 -41.59718 -71.04395 11592 ft 332 kts 23°
2026-05-04 22:39 -41.57830 -71.02645 11253 ft 331 kts 24°
2026-05-04 22:39 -41.55944 -71.00891 10913 ft 330 kts 24°
2026-05-04 22:39 -41.54068 -70.99149 10570 ft 329 kts 24°
2026-05-04 22:39 -41.52175 -70.97397 10228 ft 327 kts 24°
2026-05-04 22:40 -41.50323 -70.95689 9902 ft 325 kts 24°
2026-05-04 22:40 -41.48476 -70.93986 9788 ft 316 kts 24°
2026-05-04 22:40 -41.46688 -70.92341 9591 ft 310 kts 24°
2026-05-04 22:40 -41.45399 -70.91154 9372 ft 308 kts 24°
2026-05-04 22:41 -41.43647 -70.89542 9074 ft 307 kts 24°
2026-05-04 22:41 -41.41906 -70.87941 8889 ft 300 kts 24°
2026-05-04 22:41 -41.40180 -70.86491 8875 ft 287 kts 18°
2026-05-04 22:41 -41.38396 -70.85629 8869 ft 262 kts 352°
2026-05-04 22:42 -41.36634 -70.85946 8943 ft 254 kts 334°
2026-05-04 22:42 -41.34882 -70.86462 8950 ft 259 kts 336°
2026-05-04 22:42 -41.33147 -70.86956 8942 ft 257 kts 336°
2026-05-04 22:42 -41.31403 -70.87403 8939 ft 257 kts 339°
2026-05-04 22:43 -41.29588 -70.87765 8944 ft 259 kts 339°
2026-05-04 22:43 -41.27827 -70.88119 8926 ft 252 kts 339°
2026-05-04 22:43 -41.26099 -70.88480 8337 ft 252 kts 336°
2026-05-04 22:43 -41.24587 -70.89325 7614 ft 228 kts 312°
2026-05-04 22:44 -41.23686 -70.90932 6894 ft 212 kts 292°
2026-05-04 22:44 -41.23120 -70.92704 6382 ft 200 kts 288°
2026-05-04 22:44 -41.22584 -70.94341 6108 ft 184 kts 289°
2026-05-04 22:44 -41.22073 -70.95824 5874 ft 177 kts 289°
2026-05-04 22:45 -41.21556 -70.97308 5637 ft 171 kts 289°
2026-05-04 22:45 -41.20633 -70.99951 5212 ft 143 kts 289°
2026-05-04 22:45 -41.20242 -71.01072 5033 ft 125 kts 288°
2026-05-04 22:46 -41.19902 -71.02045 4867 ft 108 kts 287°
2026-05-04 22:46 -41.19605 -71.02894 4724 ft 97 kts 286°
2026-05-04 22:46 -41.19333 -71.03674 4606 ft 92 kts 285°
2026-05-04 22:46 -41.19030 -71.04544 4442 ft 120 kts 293°
2026-05-04 22:47 -41.18666 -71.05587 4353 ft 128 kts 293°
2026-05-04 22:47 -41.18290 -71.06663 4142 ft 129 kts 293°
2026-05-04 22:47 -41.17922 -71.07717 3956 ft 124 kts 293°
2026-05-04 22:47 -41.17565 -71.08743 3788 ft 120 kts 293°
2026-05-04 22:48 -41.17332 -71.09411 3682 ft 118 kts 293°
2026-05-04 22:48 -41.16873 -71.10728 3474 ft 119 kts 293°
2026-05-04 22:48 -41.16517 -71.11747 3288 ft 125 kts 293°
2026-05-04 22:48 -41.16273 -71.12454 3112 ft 126 kts 293°
2026-05-04 22:49 -41.15911 -71.13517 2954 ft 126 kts 294°
2026-05-04 22:49 -41.15533 -71.14581 2799 ft 129 kts 295°
2026-05-04 22:49 -41.15185 -71.15562 2769 ft 93 kts 294°
2026-05-04 22:49 -41.14982 -71.16147 2769 ft 24 kts 295°
2026-05-04 22:50 -41.14942 -71.16258 2769 ft 13 kts 295°
2026-05-04 22:50 -41.14884 -71.16332 2769 ft 10 kts
2026-05-04 22:50 -41.14828 -71.16306 2769 ft 7 kts 22°
2026-05-04 22:50 -41.14784 -71.16280 2769 ft 7 kts 35°
2026-05-04 22:51 -41.14743 -71.16245 2769 ft 7 kts 14°
2026-05-04 22:51 -41.14703 -71.16247 2769 ft 5 kts 353°
2026-05-04 22:51 -41.14669 -71.16252 2769 ft 3 kts 355°
2026-05-04 22:51 -41.14651 -71.16239 2769 ft 3 kts 50°
2026-05-04 22:52 -41.14643 -71.16227 2769 ft 1 kts 51°
2026-05-04 22:52 -41.14642 -71.16225 2769 ft 0 kts 51°